This is the latest recevied weather packets stored in our database for station/object Krauchnws. If no packets are shown the sender has not sent any weather packets the latest 1 day(s).
| Time | Temp. | Humidity | Pressure | Rain* | Wind** | Luminosity | Snow |
|---|---|---|---|---|---|---|---|
| 1836273905 | 11.67° C | 95% | 1021 hPa | 0 mm | 0.45 m/s, 162° | - | - |
| 1778023929 | 10° C | 93% | 1007.6 hPa | 0 mm | 3.13 m/s, 238° | - | - |
| 1778022129 | 10° C | 93% | 1007.6 hPa | 0 mm | 4.02 m/s, 172° | - | - |
| 1778020330 | 9.44° C | 93% | 1007.8 hPa | 0 mm | 2.68 m/s, 186° | - | - |
| 1778018529 | 10° C | 92% | 1007.8 hPa | 0 mm | 3.58 m/s, 239° | - | - |
| 1778016731 | 10.56° C | 90% | 1008 hPa | 0.51 mm | 4.02 m/s, 240° | - | - |
| 1778014935 | 10.56° C | 89% | 1008 hPa | 0.51 mm | 6.71 m/s, 207° | - | - |
| 1778013129 | 11.11° C | 88% | 1007.6 hPa | 0.51 mm | 6.71 m/s, 273° | - | - |
| 1778011330 | 11.67° C | 87% | 1007.6 hPa | 0.51 mm | 6.71 m/s, 193° | - | - |
| 1778009529 | 11.67° C | 86% | 1007.4 hPa | 0.51 mm | 6.26 m/s, 249° | - | - |
| 1778007735 | 12.22° C | 87% | 1007 hPa | 0.51 mm | 7.15 m/s, 165° | - | - |
| 1778005932 | 12.78° C | 84% | 1006.6 hPa | 0.51 mm | 4.47 m/s, 214° | - | - |
| 1778004131 | 13.89° C | 79% | 1006.4 hPa | 0.51 mm | 9.83 m/s, 286° | - | - |
| 1778002330 | 15° C | 75% | 1006.1 hPa | 0.51 mm | 6.71 m/s, 245° | - | - |
| 1778000530 | 15° C | 73% | 1005.8 hPa | 0.51 mm | 5.36 m/s, 253° | - | - |
| 1777998731 | 15.56° C | 70% | 1006 hPa | 0.51 mm | 4.92 m/s, 240° | - | - |
| 1777995130 | 16.67° C | 72% | 1005.9 hPa | 0.51 mm | 2.24 m/s, 182° | - | - |
| 1777993336 | 15° C | 76% | 1005.8 hPa | 0.51 mm | 1.79 m/s, 254° | - | - |
| 1777991532 | 15° C | 75% | 1005.8 hPa | 0.51 mm | 0.89 m/s, 124° | - | - |
| 1777989730 | 14.44° C | 78% | 1005.9 hPa | 0.51 mm | 1.79 m/s, 355° | - | - |
| 1777987930 | 13.89° C | 82% | 1006 hPa | 0.51 mm | 4.02 m/s, 317° | - | - |
| 1777986130 | 13.33° C | 85% | 1006.2 hPa | 0.51 mm | 3.13 m/s, 326° | - | - |
| 1777984330 | 13.33° C | 90% | 1006.7 hPa | 0.51 mm | 1.79 m/s, 282° | - | - |
| 1777982530 | 13.33° C | 86% | 1006.9 hPa | 0.25 mm | 1.34 m/s, 238° | - | - |
| 1777980730 | 14.44° C | 78% | 1006.9 hPa | 0 mm | 4.02 m/s, 231° | - | - |
* Rain since midnight (hover to see other rain measurements)
** Current wind speed in m/s (hover to see current wind gust speed)